Location: Clayton (historical)
(34.0300°N, 118.0259°W)
Time: 08:19:35
(UTC+00:00)

Cosmos 44 Rocket - Pass Details

Date: 29 October 2020
Orbit: 642 x 748 km, 65.1° (Epoch: 29 November)

Event Time Altitude Azimuth Distance (km) Brightness Sun altitude
Exits shadow 12:10:27 58° 201° (SSW) 867 3.6 -25.2°
Drops below altitude 10° 12:14:51 10° 163° (SSE) 2,254 6.1 -24.3°
Sets 12:17:14 0° 161° (SSE) 3,171 7.0 -23.8°
